sat.trackr.live / text

‹ back to catalog

STARLINK-30446

NORAD 57872 · 2023-144J

PAYLOAD ACTIVE UNKNOWN

§ Identity

Operator
Country
US
Launch date
2023-09-16
Launch site
AFETR
Launch vehicle
Mass (kg)
RCS (m²)

Purposes: comms

External: N2YO · Heavens-Above · Gunter

§ Orbital elements

Epoch: 2026-05-25T04:40:23.503872Z

Period
94.27 min
Inclination
43.0046°
Eccentricity
0.0001520
Mean motion
15.27573630 rev/d
Perigee alt
482.0 km
Apogee alt
484.1 km
Semi-major
6,861.2 km
B*
3.2795e-5
RAAN
199.0155°
Arg perigee
265.1637°
Mean anomaly
94.9041°
Rev number
14,923

§ Raw data

STARLINK-304461 57872U 23144J   26145.19471648  .00000640  00000+0  32795-4 0  99902 57872  43.0046 199.0155 0001520 265.1637  94.9041 15.27573630149231

JSON: /api/v1/satellites/57872 · /tle

For live sub-satellite position, see the globe view (requires WebGL).

§ Visibility from observer

Set your observer location to see the next 7 days of passes ≥ 10°. The values pass through the URL so the page stays shareable.

No JS? Fill the form by hand. The geolocation button needs JavaScript.